Location: Eymir
(36.7333°N, 29.7833°E)
Time: 17:17:17
(UTC+00:00)

MOS 1 Rocket - Pass Details

Date: 14 January 2026
Orbit: 608 x 815 km, 97.4° (Epoch: 17 February)

Event Time Altitude Azimuth Distance (km) Brightness Sun altitude
Rises 04:06:00 0° 16° (NNE) 3,018 6.6 -13.3°
Reaches altitude 10° 04:08:20 10° 22° (NNE) 2,071 5.8 -12.8°
Maximum altitude 04:12:43 53° 99° (E) 782 4.0 -12.0°
Drops below altitude 10° 04:16:54 10° 176° (S) 1,973 5.9 -11.2°
Sets 04:19:05 0° 181° (S) 2,861 6.7 -10.8°
